Regional Weather Roundup
Issued by NWS Upton, NY

Current Version | Previous Version | Graphics & Text | Print | Product List | Glossary Off
Versions: 1 2 3 4 5 6 7 8 9 10 11 12 13 14 15 16 17 18 19 20 21 22 23 24 25 26 27 28 29 30 31 32 33 34 35 36 37 38 39 40 41 42 43 44 45 46 47 48 49 50

000
ASUS41 KOKX 221905
RWROKX

REGIONAL WEATHER ROUNDUP
NATIONAL WEATHER SERVICE NEW YORK NY
300 PM EDT MON SEP 22 2014

NOTE: "FAIR" INDICATES FEW OR NO CLOUDS BELOW 12,000 FEET WITH NO
SIGNIFICANT WEATHER AND/OR OBSTRUCTIONS TO VISIBILITY.

NYZ071-072-176-178-NJZ106-104-222000-
NEW YORK CITY METRO AREA


CITY           SKY/WX    TMP DP  RH WIND       PRES   REMARKS
CENTRAL PARK   MOSUNNY   69  46  43 W8G20     29.95R
LAGUARDIA APRT PTSUNNY   71  46  40 W17G26    29.91
KENNEDY INTL   PTSUNNY   71  47  42 NW16G22   29.92
NEWARK/LIBERTY MOSUNNY   69  47  45 NW14G29   29.93
BRNX BOT. GARD   N/A     68  46  45 W8        29.93S
TETERBORO      MOSUNNY   71  45  39 W20G26    29.92
$$

NYZ177-179-078>081-222000-
LONG ISLAND NEW YORK

CITY           SKY/WX    TMP DP  RH WIND       PRES   REMARKS
FARMINGDALE    MOSUNNY   70  49  47 NW13G21   29.90
ISLIP          MOSUNNY   73  48  41 W17G23    29.87
SHIRLEY        SUNNY     72  49  44 NW15G26   29.89
WESTHAMPTON    MOSUNNY   73  49  42 W10G22    29.88
MONTAUK POINT    N/A     71  53  52 W12G20    29.86
$$

NYZ052-065-067-222000-
HUDSON VALLEY

CITY           SKY/WX    TMP DP  RH WIND       PRES   REMARKS
WHITE PLAINS   MOSUNNY   68  46  45 W21       29.91
NEWBURGH       MOSUNNY   63  46  55 W18G29    29.95
MONTGOMERY     PTSUNNY   63  44  50 NW15G24   29.95
POUGHKEEPSIE   SUNNY     68  43  40 W20G28    29.91
ALBANY         PTSUNNY   59  41  51 NW24G37   29.95
$$

NJZ001-105-106-008-010-013-015-019>022-104-222000-
NEW JERSEY

CITY           SKY/WX    TMP DP  RH WIND       PRES   REMARKS
NEWARK/LIBERTY MOSUNNY   69  47  45 NW14G29   29.93
TETERBORO      MOSUNNY   71  45  39 W20G26    29.92
CALDWELL       MOSUNNY   66  44  45 NW12G21   29.94
MORRISTOWN     PTSUNNY   66  48  52 NW7G20    29.95
SOMERVILLE     PTSUNNY   70  45  40 NW14G20   29.94
LINDEN         MOCLDY    72  50  46 NW18G24   29.96R
SUSSEX         MOSUNNY   67  45  45 VRB7G21   29.97
ANDOVER          N/A     64  45  49 NW12G20   29.98
TRENTON        CLOUDY    68  46  45 NW12G21   29.96
MILLVILLE      MOSUNNY   71  48  43 NW15G23   29.97
ATLANTIC CITY  MOSUNNY   73  50  44 NW16      29.95
WRIGHTSTOWN    PTSUNNY   69  49  49 NW13      29.93
TOMS RIVER     PTSUNNY   72  48  43 W12G17    29.95R
BELMAR         CLOUDY    70  48  46 W12G23    29.94R
$$

PAZ047>061-062-071-222000-
EASTERN PENNSYLVANIA

CITY           SKY/WX    TMP DP  RH WIND       PRES   REMARKS
PHILADELPHIA   PTSUNNY   70  47  43 NW15G23   29.98
ALLENTOWN      MOSUNNY   66  44  45 NW15G23   29.99
SCRANTON       CLOUDY    60  41  49 NW13G23   30.02
$$

CTZ002-004>006-009-010-012-RIZ004-006-007-MAZ004-011-015-222000-
SOUTHERN NEW ENGLAND
 IN CT

CITY           SKY/WX    TMP DP  RH WIND       PRES   REMARKS
BRADLEY INTL   MOSUNNY   69  44  40 NW18G26   29.87
HARTFORD       PTSUNNY   67  45  45 NW7G21    29.87
DANBURY        PTSUNNY   65  45  48 NW15G22   29.91
WTRBRY/OXFORD  PTSUNNY   66  46  48 NW9G18    29.90
BRIDGEPORT     SUNNY     72  48  42 NW15      29.87
MERIDEN        PTSUNNY   70  46  42 NW12      29.87
NEW HAVEN      MOSUNNY   73  48  41 VRB5G17   29.87
CHESTER        FAIR      70  48  46 NW10G16   29.87R
GROTON         SUNNY     73  49  42 NW17G24   29.84
WILLIMANTIC    MOSUNNY   68  47  46 NW8G21    29.86

 IN RI

CITY           SKY/WX    TMP DP  RH WIND       PRES   REMARKS
PROVIDENCE     MOSUNNY   72  44  36 W17G26    29.83
BLOCK ISLAND   SUNNY     72  54  53 W13G23    29.85R
WESTERLY       SUNNY     72  45  37 W10G25    29.84

 IN MA

CITY           SKY/WX    TMP DP  RH WIND       PRES   REMARKS
BOSTON         MOSUNNY   72  42  34 W16G32    29.77
WORCESTER      PTSUNNY   62  44  51 W16G25    29.84
WESTFIELD      SUNNY     65  43  44 W15G28    29.88
PROVINCETOWN   SUNNY     72  55  56 NW10G18   29.78R
NANTUCKET      SUNNY     71  58  63 SW20G29   29.81  HAZE
$$

ANZ330-335-338-340-345-350-353-355-222000-
COASTAL MARINE OBSERVATIONS


STATION/POSITION TIME  SKY/WX   TEMP    WIND        PRES    VSBY  WAVE
                                AIR SEA DIR/SP/G                  HT/PER
                 (UTC)          (F)     (DEG/KT/KT) (MB)    (MI)  (FT/S)
NY HARB ENTRANCE 1900            68 70  290/ 17/ 19 1013.2          5/10
4S FIRE IS       1900               70                N/A           7/10
20S FIRE ISLAND  1900            67 68  290/ 17/ 19 1012.7          6/11
23SW MTP         1900                                 N/A           8/10
HUDSON CANYON    1900            68 71  290/ 14/ 17 1013.0          8/10
EXECUTION ROCKS  1900            68 70  310/ 17/ 23   N/A
WESTERN LI SOUND 1900            68     300/ 16/ 21   N/A           1/ 2
CENTRAL LI SOUND 1800            69 70  280/ 14/ 17   N/A           3/ 4
EASTERN LI SOUND 1800            70 68  300/ 14/ 19   N/A
ROBBINS REEF     1900            67     290/ 19/ 22 1012.1
$$


>>>>>>>>>>>>>>>>>>>>>>>>>>>> KEY <<<<<<<<<<<<<<<<<<<<<<<<<<<
>                                                          <
>     SKY/WX - SKY CONDITION/PRESENT WEATHER               <
>     TMP    - TEMPERATURE IN FAHRENHEIT                   <
>     DP     - DEWPOINT IN FAHRENHEIT                      <
>     RH     - RELATIVE HUMIDITY IN PERCENT                <
>     WIND   - DIRECTION AND SPEED IN MPH                  <
>     PRES   - MEAN SEA LEVEL PRESSURE IN INCHES OF HG     <
>     WCI    - WIND CHILL INDEX                            <
>     VSB    - VISIBILITY IN MILES                         <
>     HX     - HEAT INDEX                                  <
>     TC     - TEMPERATURE IN CELSIUS                      <
>     VRB    - VARIABLE WIND DIRECTION                     <
>                                                          <
>>>>>>>>>>>>>>>>>>>>>>>>>>>> KEY <<<<<<<<<<<<<<<<<<<<<<<<<<<





USA.gov is the U.S. government's official web portal to all federal, state and local government web resources and services.